Theta_e
297 297 297 296 296 294 295 295 296 291 290 292 294 297 294 290 291 291 291 290 290 290 290 289 289 290 289 289 289 287 288 286 286 285 285 285 286 285 282 279 280 282 277 278
297 296 296 296 296 295 294 295 295 292 291 292 293 292 291 291 291 290 290 290 290 290 289 289 288 288 290 289 288 287 287 282 284 286 285 284 285 282 282 280 277 277 282 280
296 296 296 296 296 294 293 295 294 294 293 292 291 292 293 293 291 290 290 290 290 289 288 288 289 288 289 288 287 289 288 285 284 285 282 288 288 282 280 280 277 275 275 276
295 296 296 296 295 294 293 295 294 291 292 292 292 292 292 292 291 291 290 290 289 289 289 288 288 289 288 289 289 288 287 284 285 286 286 288 286 280 277 275 271 275 272 274
295 296 295 294 294 293 294 295 295 293 292 292 291 291 291 291 291 291 291 290 290 289 287 287 288 289 288 288 287 287 287 283 287 287 286 287 284 281 277 272 273 271 271 272
295 295 294 294 293 293 293 293 293 292 292 290 290 290 291 291 291 290 290 290 290 289 289 289 288 289 289 288 286 285 286 284 285 286 285 287 287 283 278 272 271 271 272 272
294 293 292 292 292 292 292 293 292 292 291 290 290 290 290 291 291 291 290 290 291 290 289 288 287 287 288 288 287 286 282 284 287 287 285 286 278 280 281 274 271 271 271 270
292 292 292 292 291 291 291 292 291 292 291 290 290 291 292 290 289 290 291 291 288 289 288 288 288 288 288 288 286 285 284 284 285 286 285 281 279 277 278 276 274 271 271 271
292 291 290 290 290 290 290 290 291 290 292 290 291 291 290 289 289 288 289 288 287 287 288 289 289 287 288 288 285 285 286 285 287 286 286 286 279 277 276 274 276 274 272 272
291 290 289 289 290 291 290 289 290 290 290 289 288 290 289 288 288 288 287 288 287 287 286 287 288 287 287 286 286 286 285 284 285 286 286 277 275 276 276 276 274 275 274 272
289 289 289 289 290 289 289 288 289 290 290 287 285 284 284 285 285 285 285 286 286 287 285 285 287 288 287 280 276 277 278 276 280 281 283 279 274 275 276 272 275 274 274 273
288 288 289 289 288 288 287 288 287 287 287 285 283 282 281 281 281 282 283 285 286 287 286 287 287 286 283 281 276 273 276 271 274 273 274 273 273 273 273 272 273 273 272 272
288 288 288 287 287 288 285 286 284 285 286 286 284 281 281 279 280 280 282 286 286 283 281 286 284 279 279 280 275 273 273 272 275 274 274 273 274 273 273 273 272 273 272 272
287 287 288 287 287 285 286 283 283 284 285 286 281 280 280 279 280 281 283 283 283 283 282 281 278 277 276 273 272 272 271 272 272 271 272 272 272 271 271 271 271 271 271 271
286 287 286 286 286 285 282 280 279 281 284 285 282 280 279 279 278 278 279 281 282 281 279 276 275 275 274 273 271 269 270 269 269 270 269 269 270 269 270 268 269 269 270 269
286 286 285 285 286 285 284 285 281 278 281 284 283 280 278 278 279 277 277 278 278 277 276 274 272 273 275 272 269 269 269 270 269 268 269 269 268 270 269 265 268 268 268 268
285 285 284 282 283 281 278 277 277 280 281 283 282 281 278 276 281 279 278 276 276 276 273 273 272 272 273 270 268 269 270 270 269 270 268 268 265 266 269 269 269 269 269 268
284 283 283 282 281 279 277 276 276 279 278 277 278 277 278 276 279 279 279 277 275 274 273 273 272 272 270 268 268 268 269 269 269 269 270 267 269 270 270 270 270 269 269 269
284 282 279 277 276 276 276 276 275 274 276 274 273 273 275 275 277 280 278 278 275 275 272 271 272 269 266 267 268 268 268 268 268 267 269 270 268 268 270 270 270 267 267 270
282 280 278 276 273 275 276 274 274 274 273 273 272 272 273 274 275 277 277 275 275 272 272 272 269 267 267 267 268 267 267 268 269 267 268 269 269 268 269 268 270 270 270 270
279 276 274 272 274 274 273 271 271 271 268 272 271 271 271 273 274 275 275 273 274 271 271 271 269 266 267 266 266 269 269 269 269 269 269 269 269 268 269 269 270 269 269 269
275 274 273 272 272 271 268 268 270 269 269 271 270 270 272 273 274 274 273 272 271 269 271 269 268 267 265 266 265 269 269 269 269 269 268 269 269 269 268 269 269 269 269 269
273 272 269 269 268 266 266 266 265 267 269 270 270 269 271 272 273 270 271 270 270 272 268 267 266 266 266 265 268 268 268 268 268 268 268 268 268 268 268 268 268 268 268 268
271 267 265 266 265 268 268 268 268 268 269 269 269 269 269 269 267 267 265 269 269 265 264 266 266 264 265 267 268 268 268 268 267 267 267 267 267 267 267 267 267 267 267 267
266 267 266 267 270 269 268 269 269 269 269 269 267 268 268 265 263 268 265 262 264 267 265 266 267 266 267 267 268 267 267 267 267 267 267 267 267 267 267 267 267 267 267 267
267 268 267 269 268 268 268 268 268 268 267 269 267 264 261 262 263 262 263 261 265 266 266 267 268 266 266 267 267 267 267 267 267 267 267 267 267 267 266 266 266 267 267 267
267 269 270 269 268 268 268 268 267 268 268 265 264 260 262 262 260 264 265 264 266 267 268 269 268 267 268 268 267 267 267 267 267 267 267 266 266 266 266 266 267 268 267 267
Wind_Speed
11 13 10 14 16 21 15 4 3 4 2 2 3 4 1 1 3 4 3 2 5 7 8 4 5 5 6 6 6 5 6 2 2 9 1 2 1 2 4 4 6 2 3 4
10 12 8 12 13 15 10 4 3 3 4 3 4 3 4 4 3 5 3 3 5 5 3 3 4 4 5 12 8 4 3 3 2 2 2 3 1 2 3 3 2 5 2 3
9 10 10 10 10 11 8 3 3 3 3 0 4 7 9 8 6 3 7 5 5 6 8 7 4 6 5 7 6 11 7 4 6 7 8 3 4 4 4 4 1 3 4 6
9 8 8 9 8 10 5 2 1 3 3 4 9 7 10 13 12 5 6 4 8 7 8 11 13 11 12 10 10 9 4 4 6 11 11 1 2 6 5 5 5 4 5 2
7 7 8 9 9 6 2 3 2 1 4 10 11 10 9 14 12 8 11 11 12 9 4 7 10 13 4 7 6 6 5 5 7 7 11 9 6 9 8 5 2 4 3 5
5 6 7 9 11 7 2 3 2 1 4 7 9 9 12 11 6 8 8 12 10 10 10 6 6 8 8 5 3 3 4 3 3 8 9 8 6 6 7 3 3 4 1 4
6 7 10 10 8 8 7 6 2 2 7 8 10 15 14 11 12 14 14 12 5 3 4 5 3 6 7 9 10 6 4 2 5 3 3 7 2 6 5 7 4 3 4 5
8 9 9 9 10 11 12 11 4 3 4 8 11 12 5 10 9 8 5 4 3 5 1 2 6 4 4 8 14 7 6 3 3 5 5 4 2 3 2 3 1 2 1 5
9 9 11 13 12 12 12 12 12 4 4 3 5 7 9 6 3 5 4 4 3 2 2 4 4 5 4 4 2 2 3 2 4 3 4 2 4 5 3 3 2 2 4 4
9 11 12 12 12 8 8 9 8 5 3 2 4 2 3 3 3 3 4 1 3 3 2 5 5 6 2 5 4 4 3 2 6 7 4 3 5 5 2 1 2 4 5 3
11 11 11 12 9 7 8 8 7 5 2 2 5 5 3 4 3 2 3 3 3 3 2 2 3 2 2 5 4 4 4 2 3 4 1 2 9 4 2 1 3 5 5 6
10 11 11 8 8 7 6 3 3 5 3 3 7 13 11 8 6 3 3 4 3 2 2 1 2 1 3 2 2 5 2 2 2 3 2 2 4 5 1 1 3 5 4 4
11 12 9 10 9 3 4 3 7 3 3 2 2 3 7 11 10 7 3 1 3 3 2 2 2 6 4 4 3 3 2 3 2 3 4 5 5 7 8 6 4 5 8 7
11 11 6 6 4 2 1 5 6 2 5 0 3 5 5 14 11 12 15 7 3 4 4 3 4 3 5 3 3 4 3 5 5 2 4 0 5 7 6 7 10 8 11 11
11 7 5 5 3 10 10 12 19 11 4 2 4 11 15 16 20 23 23 16 4 3 3 4 3 2 4 2 3 4 4 2 3 2 4 2 2 3 7 4 5 8 7 8
9 4 4 3 8 6 4 4 2 26 8 2 3 4 11 16 13 23 21 13 6 3 3 3 3 3 1 3 3 3 4 3 0 2 3 2 5 1 6 3 7 11 7 8
1 10 12 12 7 8 10 4 16 13 6 2 4 3 5 19 2 5 6 17 4 3 3 3 2 3 4 3 3 5 7 3 3 5 3 2 4 3 10 7 8 8 7 9
20 20 19 16 15 13 14 18 23 7 7 7 3 4 3 14 4 2 5 2 3 5 3 2 2 3 3 4 4 4 6 6 6 6 5 4 7 8 9 8 9 7 5 8
19 13 11 6 9 5 6 9 17 26 12 3 4 5 4 12 4 3 2 2 3 2 3 2 3 3 5 4 4 5 6 4 6 7 8 6 3 5 9 7 8 3 5 8
10 2 4 3 6 9 4 8 5 7 9 4 4 6 4 6 5 3 2 3 2 2 2 2 3 2 2 3 4 2 5 8 6 4 7 6 6 6 6 6 11 9 9 10
3 4 3 3 9 6 6 4 5 5 4 4 4 6 5 5 3 3 4 2 2 3 2 2 2 2 3 4 3 7 8 9 9 8 10 9 10 7 9 10 11 11 12 12
9 15 10 9 9 4 7 4 4 4 4 4 6 6 4 3 3 3 4 3 3 3 2 3 2 1 3 5 5 8 10 11 10 10 11 11 12 12 12 13 12 12 12 14
10 10 6 4 4 11 7 7 4 3 4 4 7 7 3 4 5 2 3 5 3 0 3 2 1 1 4 4 8 10 13 12 12 13 13 13 14 14 13 14 14 14 14 14
5 5 8 4 5 5 3 5 5 4 4 6 6 3 2 2 4 3 5 2 3 4 3 1 1 2 4 6 11 10 11 13 11 13 13 13 14 14 15 15 16 16 16 16
5 5 6 4 3 3 2 3 3 3 5 5 3 2 2 3 4 3 4 6 4 3 2 2 3 3 3 5 11 11 12 14 15 15 14 14 15 15 15 15 16 17 17 17
5 7 3 4 2 5 4 3 2 6 2 3 1 2 4 4 3 5 4 3 3 3 2 3 4 4 4 7 12 15 16 15 16 16 14 14 14 14 17 19 16 16 14 17
5 3 5 5 3 4 4 4 5 12 1 2 3 6 1 2 4 4 3 1 3 4 5 4 7 4 9 14 15 15 15 15 16 15 15 16 18 17 17 17 17 15 15 17
Wind_Direction
347 342 340 357 356 358 359 306 290 166 106 251 212 226 77 174 245 192 273 264 279 272 283 293 251 226 173 138 159 192 200 238 278 275 23 318 312 165 136 133 289 294 195 269
349 351 344 342 347 357 346 315 272 194 143 260 269 123 200 200 242 226 219 249 226 320 295 299 281 286 175 171 186 189 165 237 288 238 19 329 202 146 115 105 96 229 219 276
354 348 338 334 338 351 351 295 308 168 203 200 285 307 310 309 169 275 268 278 298 282 264 254 242 235 218 173 221 225 181 189 203 251 262 149 197 143 125 142 142 294 232 301
341 334 360 359 345 340 344 241 287 42 311 313 326 322 308 287 288 220 302 235 232 255 281 288 280 257 236 174 225 223 198 220 251 267 273 250 121 147 155 170 212 164 253 334
325 341 344 352 351 348 280 304 302 49 293 288 277 282 280 281 282 277 267 253 262 281 249 226 266 284 280 260 197 184 199 232 265 267 274 237 174 165 169 169 237 282 321 283
340 351 350 353 352 351 354 293 306 297 270 288 287 269 265 281 270 271 266 278 260 265 269 325 307 257 255 228 240 235 203 184 210 255 268 271 218 199 172 149 113 149 272 251
333 332 332 325 320 316 270 277 296 272 275 278 282 292 293 276 266 275 268 272 257 290 332 297 310 258 236 245 240 198 199 231 254 266 297 247 173 39 100 117 136 72 -0 331
323 333 340 337 329 308 303 292 211 250 270 282 288 308 321 304 287 302 301 262 352 334 322 254 245 198 206 223 232 228 224 210 243 245 233 110 135 45 52 174 124 102 359 332
326 331 326 321 310 307 300 286 256 247 277 225 328 289 277 290 312 280 255 94 110 96 245 244 253 239 184 148 36 327 280 195 232 218 230 234 68 97 83 60 146 39 54 355
330 327 322 312 317 316 305 287 270 231 253 34 8 354 351 308 300 262 288 106 202 201 246 257 258 239 259 173 155 168 179 216 235 258 256 85 14 0 25 126 200 356 28 16
327 322 316 317 319 320 307 295 298 261 276 38 38 31 13 339 6 325 6 297 227 190 239 249 246 255 98 82 33 355 44 349 35 314 161 177 348 305 319 334 342 47 9 9
321 319 323 324 325 316 318 300 1 304 239 54 97 89 64 58 12 308 289 290 281 352 304 329 18 71 50 169 100 7 76 43 52 28 78 109 24 72 143 354 6 19 2 339
322 320 320 322 320 322 342 311 326 315 242 135 145 21 28 6 343 278 283 316 9 74 269 10 62 74 350 37 43 127 76 7 82 200 82 39 59 60 32 17 14 6 1 354
320 319 314 325 329 62 170 72 8 277 303 192 77 59 43 7 13 16 225 260 63 68 32 57 44 64 13 46 105 67 353 327 355 75 67 342 73 44 17 358 13 12 352 356
320 317 313 311 211 127 121 88 56 39 336 5 133 118 38 32 39 40 42 50 47 32 57 41 46 47 60 57 79 42 356 354 359 30 5 298 49 7 10 353 1 349 340 343
327 322 321 297 163 144 185 193 315 3 350 244 131 104 25 8 55 52 40 35 46 53 70 73 62 319 24 78 72 360 4 13 69 311 314 297 280 160 12 332 338 325 348 337
23 101 97 93 122 122 68 64 321 331 346 346 139 91 43 355 7 34 69 50 46 62 76 56 54 13 46 46 64 3 357 360 11 353 331 327 18 280 323 320 325 329 321 332
128 119 105 96 91 81 44 24 19 47 74 39 29 359 56 10 329 56 15 66 49 33 84 53 57 39 56 64 16 4 354 343 28 349 339 234 288 304 310 311 310 316 311 323
131 120 117 69 41 46 351 17 34 55 50 76 45 356 352 345 346 7 46 42 69 61 60 32 66 49 45 348 349 7 356 349 321 323 321 329 302 300 329 326 334 318 303 324
124 130 59 61 1 342 11 20 25 29 29 42 38 5 352 334 328 27 32 38 59 66 45 79 78 82 127 346 347 355 322 321 346 353 343 339 338 332 320 317 321 315 321 328
78 66 67 16 20 52 39 45 34 6 35 24 348 2 335 353 338 349 8 51 18 69 14 65 74 62 346 333 328 328 342 348 346 342 329 329 326 315 322 327 335 338 339 334
88 110 90 37 28 26 63 20 19 38 28 10 341 336 333 310 320 344 357 63 42 66 328 59 66 14 316 347 317 339 351 345 338 347 336 331 327 329 325 317 323 325 328 326
62 51 50 30 353 39 45 4 344 356 2 352 336 330 336 330 0 28 25 54 56 130 43 66 84 323 342 311 336 342 341 343 345 344 333 331 325 328 326 322 316 316 318 317
55 54 37 55 16 32 7 341 334 320 306 328 323 312 349 338 22 1 66 342 31 45 49 54 344 314 314 339 338 337 332 337 336 323 324 324 323 318 315 313 313 313 310 309
63 45 48 48 30 28 310 318 291 345 329 326 327 320 48 345 49 25 29 28 43 37 350 309 317 308 328 328 337 335 330 321 318 320 319 314 310 307 306 312 309 304 301 301
64 42 47 13 14 9 4 335 327 355 302 267 241 352 50 20 55 42 11 58 29 325 315 298 308 315 309 325 323 311 302 305 314 314 316 316 319 317 312 310 308 304 299 297
52 44 35 50 20 4 353 356 345 318 12 17 42 48 279 314 42 31 24 344 275 296 303 315 325 321 319 323 318 317 318 319 317 317 318 313 310 307 307 298 306 307 305 302